Weather Roundup
Issued by NWS

Home | Current Version | Previous Version | Graphics & Text | Print | Product List | Glossary Off
Versions: 1 2 3 4 5 6 7 8 9 10 11 12 13 14 15 16 17 18 19 20 21 22 23 24 25 26 27 28 29 30 31 32 33 34 35 36 37 38 39 40 41 42 43 44 45 46 47 48 49 50

000
NZUS93 KARX 220959
HRRWXR

CURRENT HOURLY OBSERVATIONS ACROSS
MUCH OF THE UPPER MISSISSIPPI VALLEY
NATIONAL WEATHER SERVICE LA CROSSE WI
500 AM CDT TUE AUG 22 2017


...SOUTHEAST MINNESOTA...


CITY           SKY/WX    TMP DP  RH WIND       PRES   REMARKS
ROCHESTER      CLEAR     61  60  97 NW13      29.92R
ROCHESTER/MAYO FAIR      62  61  97 W17       29.91R
WINONA         CLOUDY    66  63  88 NW7       29.86S
AUSTIN         CLEAR     63  59  88 NW12      29.93R
ALBERT LEA     CLEAR     64  63  94 NW7       29.95S
DODGE CENTER   CLEAR     61  57  88 NW12      29.93R
PRESTON        CLOUDY    61  59  91 NW13      29.91S
OWATONNA       CLEAR     61  57  88 NW9       29.94S
FARIBAULT      CLEAR     61  59  94 W6        29.94S
$$

...ELSEWHERE IN MINNESOTA...


CITY           SKY/WX    TMP DP  RH WIND       PRES   REMARKS
MINNEAPOLIS    CLEAR     63  57  81 NW12      29.92R
INTNL FALLS    PTCLDY    50  48  93 W5        29.90R
DULUTH         PTCLDY    53  53 100 NW13      29.87R
RED WING       CLEAR     63  59  88 NW7       29.89R
REDWOOD FALLS  CLEAR     57  53  86 NW10      30.02R
MANKATO        CLEAR     60  57  89 NW12      29.97R
WORTHINGTON    CLEAR     56  52  86 NW12      30.06R
FAIRMONT       CLEAR     59  56  89 NW12      30.00R
$$

...SOUTHWEST WISCONSIN...


CITY           SKY/WX    TMP DP  RH WIND       PRES   REMARKS
LA CROSSE      PTCLDY    69  63  81 W10       29.84R
PRAIRIE DU CHI CLOUDY    64  61  89 W5        29.86S
BOSCOBEL       CLOUDY    65  62  90 SW6       29.86R
LONE ROCK      NOT AVBL
PLATTEVILLE    CLOUDY    65  65 100 W5        29.88S
FORT MC COY    MOCLDY    61  61  98 W3        29.84S
CAMP DOUGLAS   PTCLDY    64  64  98 W9        29.81S
MAUSTON-NEW LI MOSUNNY   65  62  93 W7        29.81S
VIROQUA        CLOUDY    63  63 100 CALM      29.86F
WIS DELLS      CLOUDY    64  61  91 W7        29.84R
$$

...ELSEWHERE IN WISCONSIN...


CITY           SKY/WX    TMP DP  RH WIND       PRES   REMARKS
MILWAUKEE      CLOUDY    74  66  76 W12G22    29.81S
MADISON        MOCLDY    67  63  87 SW3       29.83F
GREEN BAY      MOCLDY    66  64  93 SW7       29.74F
EAU CLAIRE     NOT AVBL
BLACK RVR FLS  CLOUDY    65  65 100 W6        29.83R
MEDFORD        CLOUDY    63  60  92 NW9       29.79S
WAUSAU         MOCLDY    65  62  90 W13       29.76R
WIS RAPIDS     CLOUDY    65  64  97 W8        29.80F
MARSHFIELD     CLOUDY    65  61  87 W10       29.79S
RICE LAKE      CLEAR     60  58  92 NW6       29.88R
$$

...NORTHEAST IOWA...


CITY           SKY/WX    TMP DP  RH WIND       PRES   REMARKS
WATERLOO       PTCLDY    63  62  97 W9        29.91S
DUBUQUE        CLOUDY    64  63  96 NW7       29.89F
DECORAH        CLOUDY    63  63 100 CALM      29.88S
MASON CITY     NOT AVBL
CHARLES CITY   CLOUDY    63  63 100 W8        29.92S
OELWEIN        CLOUDY    63  63 100 W9        29.91S
$$

...ELSEWHERE IN IOWA...


CITY           SKY/WX    TMP DP  RH WIND       PRES   REMARKS
DES MOINES     MOCLDY    65  63  93 W7        29.98R
IOWA CITY      CLOUDY    67  65  93 NW7       29.92R
FORT DODGE     CLEAR     63  57  82 NW5       29.99R
MARSHALLTOWN   PTCLDY    64  63  96 W7        29.94S
CEDAR RAPIDS   CLOUDY    64  64 100 W12       29.91R
$$

...NORTHERN ILLINOIS...


CITY           SKY/WX    TMP DP  RH WIND       PRES   REMARKS
CHICAGO-OHARE  LGT RAIN  73  69  87 W10       29.86F
CHICAGO-MIDWAY LGT RAIN  73  70  90 W12       29.87F
MOLINE         CLOUDY    69  65  86 W8        29.91R
ROCKFORD       CLOUDY    69  65  86 NW7       29.88F
PEORIA         LGT RAIN  69  68  96 SW6       29.92S
$$

NOTE: "FAIR" INDICATES FEW OR NO CLOUDS BELOW 12,000 FEET WITH NO
SIGNIFICANT WEATHER AND/OR OBSTRUCTIONS TO VISIBILITY. WIND
SPEEDS ARE IN MILES-PER-HOUR.




USA.gov is the U.S. government's official web portal to all federal, state and local government web resources and services.